Location: Puketoi
(40.5833°S, 176.0167°E)
Time: 21:15:17
(UTC+00:00)

PAYLOAD A - Visible Passes

Search period start: 05 October 2024 00:00
Search period end: 15 October 2024 00:00
Orbit: 690 x 830 km, 98.5° (Epoch: 05 October)

Date Brightness Start Highest point End Pass type
(mag) Time Alt. Az. Time Alt. Az. Time Alt. Az.
05 Oct 5.5 14:27:00 31° E 14:28:21 36° ESE 14:33:17 10° S visible
05 Oct 4.9 16:07:04 30° W 16:07:11 30° W 16:11:58 10° SW visible
06 Oct 6.6 13:48:05 13° E 13:50:34 18° ESE 13:54:03 10° SSE visible
06 Oct 4.0 15:28:09 61° NW 15:28:50 68° WNW 15:34:17 10° SSW visible
07 Oct 4.7 14:49:15 43° ENE 14:50:42 56° ESE 14:56:01 10° S visible
07 Oct 5.4 16:29:19 19° W 16:29:51 19° W 16:33:40 10° SW visible
08 Oct 6.0 14:10:20 19° ENE 14:12:46 27° ESE 14:17:14 10° S visible
08 Oct 4.5 15:50:24 38° NW 15:51:22 42° W 15:56:32 10° SSW visible
09 Oct 6.9 13:32:46 10° E 13:35:03 13° ESE 13:37:20 10° SSE visible
09 Oct 4.1 15:11:30 48° NNE 15:13:07 88° ESE 15:18:34 10° SSW visible
09 Oct 5.9 16:51:34 11° W 16:52:35 11° W 16:54:19 10° WSW visible
10 Oct 5.3 14:32:35 26° ENE 14:35:03 41° ESE 14:40:05 10° S visible
10 Oct 5.1 16:12:40 24° WNW 16:13:58 26° W 16:18:30 10° SW visible
11 Oct 6.5 13:53:41 11° ENE 13:57:12 20° ESE 14:00:58 10° SSE visible
11 Oct 4.1 15:33:45 39° NNW 15:35:35 59° W 15:40:56 10° SSW visible
12 Oct 4.5 14:54:51 31° NE 14:57:24 64° ESE 15:02:43 10° S visible
12 Oct 5.6 16:34:55 14° WNW 16:36:38 16° W 16:39:59 10° SW visible
13 Oct 5.8 14:15:56 16° ENE 14:19:25 30° ESE 14:24:01 10° S visible
13 Oct 4.7 15:56:01 27° NW 15:58:07 36° W 16:03:04 10° SSW visible
14 Oct 6.8 13:38:52 10° E 13:41:38 14° ESE 13:44:23 10° SSE visible
14 Oct 4.0 15:17:07 31° N 15:19:48 82° WNW 15:25:12 10° SSW visible
